• In Hungary
  • List of Countries
  • For 7 days
  • Water Temperature
  • Satellite Maps
  • Weather Map
  • News
  • Weather Widgets
  • user-avatar
    Login

    Hourly Weather Varna

    Today, 19 December, Tuesday

    Time Temperature Precipitation Wind Pressure Humidity
    00:00 0°C° 0.2 mm 4 mps 750 mmHg 78%
    01:00 0°C° 0.2 mm 5 mps 750 mmHg 79%
    02:00 0°C° 0.2 mm 5 mps 750 mmHg 79%
    03:00 -2°C° 0.5 mm 6 mps 750 mmHg 81%
    04:00 -2°C° 0.5 mm 6 mps 750 mmHg 83%
    05:00 -2°C° 0.5 mm 6 mps 750 mmHg 85%
    06:00 -2°C° 0.7 mm 6 mps 750 mmHg 87%
    07:00 -3°C° 0.7 mm 6 mps 751 mmHg 88%
    08:00 -3°C° 0.7 mm 6 mps 751 mmHg 90%
    09:00 -3°C° 0.4 mm 6 mps 752 mmHg 88%
    10:00 -3°C° 0.4 mm 6 mps 752 mmHg 87%
    11:00 -3°C° 0.4 mm 7 mps 753 mmHg 85%
    12:00 -2°C° 0.4 mm 6 mps 753 mmHg 85%
    13:00 -1°C° 0.4 mm 5 mps 753 mmHg 84%
    14:00 -1°C° 0.4 mm 5 mps 753 mmHg 84%
    15:00 -1°C° 0.2 mm 4 mps 753 mmHg 85%
    16:00 -1°C° 0.2 mm 4 mps 754 mmHg 86%
    17:00 -2°C° 0.2 mm 4 mps 754 mmHg 88%
    18:00 -2°C° 0.1 mm 4 mps 755 mmHg 89%
    19:00 -1°C° 0.1 mm 3 mps 755 mmHg 89%
    20:00 -1°C° 0.1 mm 3 mps 755 mmHg 90%
    21:00 -1°C° 0.1 mm 3 mps 755 mmHg 90%
    22:00 -1°C° 0.1 mm 3 mps 755 mmHg 91%
    23:00 -1°C° 0.1 mm 2 mps 755 mmHg 91%

    Tomorrow, 20 December, Wednesday

    Time Temperature Precipitation Wind Pressure Humidity
    00:00 -1°C° 0.1 mm 2 mps 756 mmHg 91%
    01:00 -1°C° 0.1 mm 2 mps 756 mmHg 92%
    02:00 -1°C° 0.1 mm 2 mps 756 mmHg 92%
    03:00 -1°C° 0 mm 2 mps 756 mmHg 92%
    04:00 -1°C° 0 mm 2 mps 756 mmHg 92%
    05:00 -2°C° 0 mm 2 mps 756 mmHg 92%
    06:00 -2°C° 0 mm 2 mps 756 mmHg 91%
    07:00 -2°C° 0 mm 2 mps 756 mmHg 91%
    08:00 -4°C° 0 mm 3 mps 756 mmHg 90%
    09:00 -2°C° 0 mm 3 mps 757 mmHg 87%
    10:00 -1°C° 0 mm 3 mps 757 mmHg 84%
    11:00 -1°C° 0 mm 3 mps 757 mmHg 80%
    12:00 -1°C° 0 mm 3 mps 757 mmHg 80%
    13:00 0°C° 0 mm 3 mps 757 mmHg 79%
    14:00 0°C° 0 mm 3 mps 756 mmHg 79%
    15:00 -1°C° 0 mm 3 mps 756 mmHg 81%
    16:00 -2°C° 0 mm 2 mps 756 mmHg 84%
    17:00 -3°C° 0 mm 2 mps 756 mmHg 86%
    18:00 -3°C° 0 mm 2 mps 757 mmHg 87%
    19:00 -3°C° 0 mm 2 mps 757 mmHg 87%
    20:00 -4°C° 0 mm 2 mps 757 mmHg 88%
    21:00 -4°C° 0 mm 2 mps 757 mmHg 88%
    22:00 -4°C° 0 mm 2 mps 757 mmHg 87%
    23:00 -5°C° 0 mm 3 mps 758 mmHg 87%

    Day after tomorrow, 21 December, Thursday

    Time Temperature Precipitation Wind Pressure Humidity
    00:00 -5°C° 0 mm 3 mps 757 mmHg 87%
    01:00 -5°C° 0 mm 3 mps 757 mmHg 86%
    02:00 -5°C° 0 mm 3 mps 757 mmHg 86%
    03:00 -5°C° 0 mm 3 mps 757 mmHg 85%
    04:00 -4°C° 0 mm 2 mps 757 mmHg 85%
    05:00 -4°C° 0 mm 2 mps 757 mmHg 84%
    06:00 -4°C° 0 mm 2 mps 757 mmHg 83%
    07:00 -5°C° 0 mm 3 mps 757 mmHg 82%
    08:00 -5°C° 0 mm 3 mps 758 mmHg 82%
    09:00 -4°C° 0 mm 3 mps 758 mmHg 78%
    10:00 -2°C° 0 mm 3 mps 758 mmHg 75%
    11:00 -1°C° 0 mm 3 mps 758 mmHg 71%
    12:00 -1°C° 0 mm 3 mps 757 mmHg 70%
    13:00 0°C° 0 mm 3 mps 757 mmHg 70%
    14:00 0°C° 0 mm 3 mps 757 mmHg 69%
    15:00 0°C° 0 mm 3 mps 756 mmHg 72%
    16:00 -1°C° 0 mm 3 mps 756 mmHg 75%
    17:00 -2°C° 0 mm 3 mps 756 mmHg 78%
    18:00 -2°C° 0 mm 3 mps 756 mmHg 78%
    19:00 -2°C° 0 mm 3 mps 756 mmHg 78%
    20:00 -2°C° 0 mm 3 mps 756 mmHg 78%
    21:00 -4°C° 0 mm 3 mps 756 mmHg 79%
    22:00 -4°C° 0 mm 4 mps 756 mmHg 80%
    23:00 -4°C° 0 mm 4 mps 756 mmHg 80%

    22 December, Friday

    Time Temperature Precipitation Wind Pressure Humidity
    00:00 -5°C° 0 mm 4 mps 755 mmHg 81%
    01:00 -5°C° 0 mm 4 mps 755 mmHg 81%
    02:00 -6°C° 0 mm 5 mps 755 mmHg 81%
    03:00 -5°C° 0 mm 4 mps 754 mmHg 81%
    04:00 -5°C° 0 mm 4 mps 754 mmHg 82%
    05:00 -7°C° 0 mm 4 mps 754 mmHg 82%
    06:00 -7°C° 0 mm 4 mps 754 mmHg 81%
    07:00 -7°C° 0 mm 4 mps 754 mmHg 81%
    08:00 -7°C° 0 mm 4 mps 754 mmHg 81%
    09:00 -4°C° 0 mm 4 mps 754 mmHg 77%
    10:00 -3°C° 0 mm 4 mps 754 mmHg 73%
    11:00 -2°C° 0 mm 4 mps 754 mmHg 69%
    12:00 -1°C° 0 mm 4 mps 753 mmHg 69%
    13:00 -1°C° 0 mm 4 mps 753 mmHg 68%
    14:00 -1°C° 0 mm 4 mps 752 mmHg 68%
    15:00 -1°C° 0 mm 4 mps 752 mmHg 72%
    16:00 -1°C° 0 mm 3 mps 751 mmHg 76%
    17:00 -2°C° 0 mm 3 mps 751 mmHg 79%
    18:00 -2°C° 0 mm 3 mps 751 mmHg 79%
    19:00 -4°C° 0 mm 3 mps 751 mmHg 78%
    20:00 -4°C° 0 mm 3 mps 751 mmHg 77%
    21:00 -4°C° 0 mm 3 mps 750 mmHg 77%
    22:00 -4°C° 0 mm 3 mps 750 mmHg 77%
    23:00 -3°C° 0 mm 2 mps 749 mmHg 76%

    23 December, Saturday

    Time Temperature Precipitation Wind Pressure Humidity
    00:00 -4°C° 0 mm 3 mps 749 mmHg 78%
    01:00 -4°C° 0 mm 3 mps 748 mmHg 79%
    02:00 -4°C° 0 mm 3 mps 748 mmHg 81%
    03:00 -4°C° 0 mm 3 mps 747 mmHg 83%
    04:00 -4°C° 0 mm 3 mps 746 mmHg 84%
    05:00 -4°C° 0 mm 3 mps 745 mmHg 86%
    06:00 -4°C° 0 mm 3 mps 745 mmHg 88%
    07:00 -4°C° 0 mm 3 mps 745 mmHg 89%
    08:00 -4°C° 0 mm 3 mps 745 mmHg 91%
    09:00 -2°C° 0 mm 3 mps 744 mmHg 89%
    10:00 -2°C° 0 mm 4 mps 744 mmHg 87%
    11:00 -1°C° 0 mm 4 mps 743 mmHg 86%
    12:00 -1°C° 0 mm 5 mps 743 mmHg 84%
    13:00 -1°C° 0 mm 5 mps 742 mmHg 82%
    14:00 -1°C° 0 mm 5 mps 742 mmHg 81%
    15:00 -1°C° 0 mm 5 mps 742 mmHg 81%
    16:00 -3°C° 0 mm 6 mps 742 mmHg 81%
    17:00 -3°C° 0 mm 6 mps 743 mmHg 82%
    18:00 -3°C° 0.2 mm 7 mps 743 mmHg 84%
    19:00 -3°C° 0.2 mm 7 mps 743 mmHg 87%
    20:00 -4°C° 0.2 mm 8 mps 744 mmHg 89%
    21:00 -4°C° 0.4 mm 8 mps 744 mmHg 89%
    22:00 -4°C° 0.4 mm 8 mps 745 mmHg 89%
    23:00 -4°C° 0.4 mm 9 mps 745 mmHg 89%

    24 December, Sunday

    Time Temperature Precipitation Wind Pressure Humidity
    00:00 -4°C° 0.1 mm 9 mps 746 mmHg 88%
    01:00 -5°C° 0.1 mm 9 mps 746 mmHg 87%
    02:00 -5°C° 0.1 mm 9 mps 747 mmHg 87%
    03:00 -5°C° 0 mm 9 mps 748 mmHg 86%
    04:00 -6°C° 0 mm 9 mps 748 mmHg 86%
    05:00 -6°C° 0 mm 9 mps 749 mmHg 86%
    06:00 -6°C° 0 mm 8 mps 749 mmHg 86%
    07:00 -7°C° 0 mm 8 mps 750 mmHg 86%
    08:00 -7°C° 0 mm 7 mps 751 mmHg 86%
    09:00 -6°C° 0 mm 8 mps 752 mmHg 83%
    10:00 -5°C° 0 mm 8 mps 752 mmHg 79%
    11:00 -4°C° 0 mm 8 mps 753 mmHg 76%
    12:00 -4°C° 0 mm 8 mps 753 mmHg 73%
    13:00 -2°C° 0 mm 7 mps 753 mmHg 70%
    14:00 -2°C° 0 mm 7 mps 753 mmHg 67%
    15:00 -3°C° 0 mm 6 mps 753 mmHg 72%
    16:00 -2°C° 0 mm 5 mps 754 mmHg 77%
    17:00 -3°C° 0 mm 4 mps 754 mmHg 82%
    18:00 -3°C° 0 mm 4 mps 754 mmHg 84%
    19:00 -3°C° 0 mm 4 mps 755 mmHg 85%
    20:00 -3°C° 0 mm 4 mps 755 mmHg 87%
    21:00 -4°C° 0 mm 4 mps 755 mmHg 88%
    22:00 -4°C° 0 mm 4 mps 756 mmHg 89%
    23:00 -4°C° 0 mm 4 mps 756 mmHg 89%
    Show more